THOR ABLESTAR DEB, 1425

Orbit data source: Space-Track

THOR ABLESTAR DEB, 1425 is space debris in LEO originally from a launch on Thu, 24 Jun 1965 UTC launched from the Air Force Western Test Range (AFWTR). Debris objects in space refer to the collection of defunct objects orbiting the Earth. Examples of debris include non-operational satellites, rocket bodies, and fragments generated from explosions, collisions, or faulty payload assembly.

Loading next visibility...
Identifier
1425, 1965-048C
Orbit
LEO
Country
Flag of USUS
Related business
Manufacturer
APL
Mission
Spacecraft
Bus & Motor
Unknown
Mass
Unknown
Launch date (UTC)
1965-06-24 (61 years ago)
Launch vehicle
Unknown
Launch site
Air Force Western Test Range (AFWTR)
Object type
Payload
Rocket body
Debris
Shape & HBR
Unknown shape, 0.4 m
Radar Cross Section
Medium (>0.1 m² and <1 m²)

Expand to show TLE details & history
Last TLE update: 1 day ago

TLE from 1 day ago
0 THOR ABLESTAR DEB
1 01425U 65048C   26263.02174843  .00000038  00000-0  45223-4 0  9994
2 01425  89.8702 283.7237 0072259 312.8172  74.9552 13.48952741 13199
Epoch: 2026-09-20T00:31Z
TLE epoch observation values (Epoch: 2026-09-20T00:31:19.064Z)
Latitude
28.61576°
Longitude
-82.95719°
Altitude
1,066.086 km
Speed
7.328 km/s
True Right ascension
18h 55m 10s
True Declination
28° 28' 39"
Sunlit
Object was in daylight at epoch
Visualization orbit readout
Latitude
Unknown
Longitude
Unknown
Altitude
Unknown
Speed
Unknown
Apparent Right ascension
Unknown
Apparent Declination
Unknown
Sunlit
N/A
Visualization observer readout
Local Sidereal Time
19:11:03
Azimuth
Unknown
Elevation
Unknown
Doppler factor
Unknown
Orbital elements
Apogee altitude
1,127.008 km
Perigee altitude
1,019.323 km
Semi-major axis
7,451.302 km
Eccentricity
0.00723
Inclination
89.8702°
RAAN
283.7237°
Arg. of periapsis
312.8172°
True anomaly
75.7567°
Mean anomaly
74.9552°
Eccentric anomaly
75.35576°
Mean motion
3.37439 °/min
Orbital period
106.69 mins
BSTAR
0.000045223
Loading maneuver chart data...
Computing Atmospheric mass density...

Documentation

Showing up to 5 results
|